User: anonymous   Login
Location: Unspecified
(0.0000°N, 0.0000°E)
Time: 18:08:14
(UTC+00:00)
Language:

STARLINK-31117 - Orbit

View from above orbital plane
View from above orbital plane
View from above satellite
View from above satellite

Ground track
Ground track

The orbit is defined by the following mean orbital elements,

1 58776U          26145.34591590 +.00000000 +00000-0 +38290-4 0 00006
2 58776  53.1608  17.8237 0001102  85.2322 274.8804 15.30197679    03
Epoch (UTC): 25 May 2026 08:18:07
Eccentricity: 0.0001102
inclination: 53.1608°
perigee height: 474 km
apogee height: 476 km
right ascension of ascending node: 17.8237°
argument of perigee: 85.2322°
revolutions per day: 15.30197679
mean anomaly at epoch: 274.8804°

The dashed part of the orbit path shows where the satellite is in the earth's shadow,  

DLR